weather.gov     
National Weather Service

Terminal Aerodrome Forecast
NWS Homepage
This page is being discontinued on March 12, 2014.
The same data is available at this site. Please update your bookmarks.
Thank you, and we apologize for the inconvenience.
Please send an email to SR-SRH.Webmaster@noaa.gov with any concerns.


Current Version
Previous Version:    01  02  03  04  05  06  07  08  09  10  11  12  13  14  15  16  17  18  19  20  21  22  23  24  25  26  27  28  29  30  
   31  
[Printable]
617
FTUS46 KMTR 292300
TAFSTS
TAF
KSTS 292339Z 3000/3024 21005KT P6SM FEW200
     FM300500 VRB03KT 6SM BR FEW200
     FM300900 00000KT 1SM BR BKN003
     FM301200 00000KT 1/2SM FG VV002
     FM301800 VRB03KT 5SM BR SKC
     FM301900 30006KT P6SM SKC=


U.S. Dept. of Commerce
NOAA National Weather Service
1325 East West Highway
Silver Spring, MD 20910
E-mail: w-nws.webmaster@noaa.gov
Page last modified: May 16, 2007
NATIONAL WEATHER SERVICE: for Safety, for Work, for Fun - FOR LIFE